Year,Month,Day,Hour,Minute,Value (Times are PST for temperature in C)
2012,09,14,00,00,9.60
2012,09,14,00,01,9.60
2012,09,14,00,02,9.60
2012,09,14,00,03,9.60
2012,09,14,00,04,9.60
2012,09,14,00,05,9.50
2012,09,14,00,06,9.50
2012,09,14,00,07,9.50
2012,09,14,00,08,9.50
2012,09,14,00,09,9.40
2012,09,14,00,10,9.40
2012,09,14,00,11,9.40
2012,09,14,00,12,9.40
2012,09,14,00,13,9.40
2012,09,14,00,14,9.40
2012,09,14,00,15,9.40
2012,09,14,00,16,9.40
2012,09,14,00,17,9.40
2012,09,14,00,18,9.40
2012,09,14,00,19,9.40
2012,09,14,00,20,9.40
2012,09,14,00,21,9.40
2012,09,14,00,22,9.40
2012,09,14,00,23,9.40
2012,09,14,00,24,9.40
2012,09,14,00,25,9.40
2012,09,14,00,26,9.40
2012,09,14,00,27,9.40
2012,09,14,00,28,9.40
2012,09,14,00,29,9.40
2012,09,14,00,30,9.30
2012,09,14,00,31,9.30
2012,09,14,00,32,9.30
2012,09,14,00,33,9.30
2012,09,14,00,34,9.20
2012,09,14,00,35,9.20
2012,09,14,00,36,9.20
2012,09,14,00,37,9.20
2012,09,14,00,38,9.20
2012,09,14,00,39,9.20
2012,09,14,00,40,9.10
2012,09,14,00,41,9.10
2012,09,14,00,42,9.10
2012,09,14,00,43,9.10
2012,09,14,00,44,9.00
2012,09,14,00,45,9.00
2012,09,14,00,46,9.00
2012,09,14,00,47,8.90
2012,09,14,00,48,8.90
2012,09,14,00,49,8.90
2012,09,14,00,50,8.90
2012,09,14,00,51,8.90
2012,09,14,00,52,8.90
2012,09,14,00,53,8.80
2012,09,14,00,54,8.80
2012,09,14,00,55,8.80
2012,09,14,00,56,8.80
2012,09,14,00,57,8.80
2012,09,14,00,58,8.80
2012,09,14,00,59,8.80
2012,09,14,01,00,8.70
2012,09,14,01,01,8.70
2012,09,14,01,02,8.70
2012,09,14,01,03,8.70
2012,09,14,01,04,8.60
2012,09,14,01,05,8.60
2012,09,14,01,06,8.60
2012,09,14,01,07,8.60
2012,09,14,01,08,8.50
2012,09,14,01,09,8.50
2012,09,14,01,10,8.50
2012,09,14,01,11,8.40
2012,09,14,01,12,8.40
2012,09,14,01,13,8.40
2012,09,14,01,14,8.40
2012,09,14,01,15,8.40
2012,09,14,01,16,8.40
2012,09,14,01,17,8.40
2012,09,14,01,18,8.40
2012,09,14,01,19,8.40
2012,09,14,01,20,8.40
2012,09,14,01,21,8.40
2012,09,14,01,22,8.40
2012,09,14,01,23,8.40
2012,09,14,01,24,8.40
2012,09,14,01,25,8.50
2012,09,14,01,26,8.50
2012,09,14,01,27,8.50
2012,09,14,01,28,8.50
2012,09,14,01,29,8.50
2012,09,14,01,30,8.50
2012,09,14,01,31,8.40
2012,09,14,01,32,8.40
2012,09,14,01,33,8.40
2012,09,14,01,34,8.40
2012,09,14,01,35,8.40
2012,09,14,01,36,8.30
2012,09,14,01,37,8.30
2012,09,14,01,38,8.30
2012,09,14,01,39,8.30
2012,09,14,01,40,8.20
2012,09,14,01,41,8.20
2012,09,14,01,42,8.20
2012,09,14,01,43,8.20
2012,09,14,01,44,8.10
2012,09,14,01,45,8.10
2012,09,14,01,46,8.10
2012,09,14,01,47,8.00
2012,09,14,01,48,8.00
2012,09,14,01,49,7.90
2012,09,14,01,50,7.90
2012,09,14,01,51,7.90
2012,09,14,01,52,7.90
2012,09,14,01,53,7.90
2012,09,14,01,54,7.90
2012,09,14,01,55,7.90
2012,09,14,01,56,7.80
2012,09,14,01,57,7.80
2012,09,14,01,58,7.80
2012,09,14,01,59,7.80
2012,09,14,02,00,7.80
2012,09,14,02,01,7.70
2012,09,14,02,02,7.70
2012,09,14,02,03,7.70
2012,09,14,02,04,7.70
2012,09,14,02,05,7.70
2012,09,14,02,06,7.70
2012,09,14,02,07,7.70
2012,09,14,02,08,7.80
2012,09,14,02,09,7.80
2012,09,14,02,10,7.80
2012,09,14,02,11,7.80
2012,09,14,02,12,7.80
2012,09,14,02,13,7.80
2012,09,14,02,14,7.80
2012,09,14,02,15,7.80
2012,09,14,02,16,7.70
2012,09,14,02,17,7.80
2012,09,14,02,18,7.80
2012,09,14,02,19,7.80
2012,09,14,02,20,7.80
2012,09,14,02,21,7.90
2012,09,14,02,22,7.90
2012,09,14,02,23,8.00
2012,09,14,02,24,8.00
2012,09,14,02,25,8.10
2012,09,14,02,26,8.10
2012,09,14,02,27,8.20
2012,09,14,02,28,8.20
2012,09,14,02,29,8.20
2012,09,14,02,30,8.20
2012,09,14,02,31,8.20
2012,09,14,02,32,8.20
2012,09,14,02,33,8.20
2012,09,14,02,34,8.30
2012,09,14,02,35,8.30
2012,09,14,02,36,8.30
2012,09,14,02,37,8.30
2012,09,14,02,38,8.30
2012,09,14,02,39,8.30
2012,09,14,02,40,8.30
2012,09,14,02,41,8.40
2012,09,14,02,42,8.40
2012,09,14,02,43,8.40
2012,09,14,02,44,8.40
2012,09,14,02,45,8.50
2012,09,14,02,46,8.60
2012,09,14,02,47,8.60
2012,09,14,02,48,8.60
2012,09,14,02,49,8.70
2012,09,14,02,50,8.70
2012,09,14,02,51,8.70
2012,09,14,02,52,8.70
2012,09,14,02,53,8.60
2012,09,14,02,54,8.60
2012,09,14,02,55,8.60
2012,09,14,02,56,8.60
2012,09,14,02,57,8.60
2012,09,14,02,58,8.60
2012,09,14,02,59,8.60
2012,09,14,03,00,8.60
2012,09,14,03,01,8.70
2012,09,14,03,02,8.80
2012,09,14,03,03,8.90
2012,09,14,03,04,9.10
2012,09,14,03,05,9.40
2012,09,14,03,06,9.60
2012,09,14,03,07,9.70
2012,09,14,03,08,9.80
2012,09,14,03,09,10.00
2012,09,14,03,10,10.10
2012,09,14,03,11,10.30
2012,09,14,03,12,10.40
2012,09,14,03,13,10.60
2012,09,14,03,14,10.80
2012,09,14,03,15,10.90
2012,09,14,03,16,11.00
2012,09,14,03,17,11.20
2012,09,14,03,18,11.30
2012,09,14,03,19,11.40
2012,09,14,03,20,11.60
2012,09,14,03,21,11.70
2012,09,14,03,22,11.80
2012,09,14,03,23,11.90
2012,09,14,03,24,12.10
2012,09,14,03,25,12.20
2012,09,14,03,26,12.30
2012,09,14,03,27,12.40
2012,09,14,03,28,12.50
2012,09,14,03,29,12.50
2012,09,14,03,30,12.60
2012,09,14,03,31,12.70
2012,09,14,03,32,12.80
2012,09,14,03,33,12.90
2012,09,14,03,34,13.10
2012,09,14,03,35,13.30
2012,09,14,03,36,13.40
2012,09,14,03,37,13.50
2012,09,14,03,38,13.60
2012,09,14,03,39,13.60
2012,09,14,03,40,13.70
2012,09,14,03,41,13.80
2012,09,14,03,42,14.00
2012,09,14,03,43,14.20
2012,09,14,03,44,14.30
2012,09,14,03,45,14.40
2012,09,14,03,46,14.50
2012,09,14,03,47,14.50
2012,09,14,03,48,14.60
2012,09,14,03,49,14.60
2012,09,14,03,50,14.60
2012,09,14,03,51,14.60
2012,09,14,03,52,14.60
2012,09,14,03,53,14.60
2012,09,14,03,54,14.60
2012,09,14,03,55,14.60
2012,09,14,03,56,14.60
2012,09,14,03,57,14.60
2012,09,14,03,58,14.60
2012,09,14,03,59,14.50
2012,09,14,04,00,14.50
2012,09,14,04,01,14.50
2012,09,14,04,02,14.40
2012,09,14,04,03,14.40
2012,09,14,04,04,14.30
2012,09,14,04,05,14.20
2012,09,14,04,06,14.20
2012,09,14,04,07,14.10
2012,09,14,04,08,14.10
2012,09,14,04,09,14.00
2012,09,14,04,10,14.00
2012,09,14,04,11,14.00
2012,09,14,04,12,14.00
2012,09,14,04,13,13.90
2012,09,14,04,14,14.00
2012,09,14,04,15,14.00
2012,09,14,04,16,14.00
2012,09,14,04,17,14.00
2012,09,14,04,18,14.00
2012,09,14,04,19,14.10
2012,09,14,04,20,14.10
2012,09,14,04,21,14.10
2012,09,14,04,22,14.10
2012,09,14,04,23,14.10
2012,09,14,04,24,14.10
2012,09,14,04,25,14.10
2012,09,14,04,26,14.10
2012,09,14,04,27,14.10
2012,09,14,04,28,14.00
2012,09,14,04,29,14.00
2012,09,14,04,30,13.90
2012,09,14,04,31,13.90
2012,09,14,04,32,13.90
2012,09,14,04,33,13.80
2012,09,14,04,34,13.70
2012,09,14,04,35,13.60
2012,09,14,04,36,13.50
2012,09,14,04,37,13.40
2012,09,14,04,38,13.20
2012,09,14,04,39,13.00
2012,09,14,04,40,12.90
2012,09,14,04,41,12.70
2012,09,14,04,42,12.60
2012,09,14,04,43,12.50
2012,09,14,04,44,12.40
2012,09,14,04,45,12.30
2012,09,14,04,46,12.20
2012,09,14,04,47,12.00
2012,09,14,04,48,11.90
2012,09,14,04,49,11.90
2012,09,14,04,50,11.80
2012,09,14,04,51,11.70
2012,09,14,04,52,11.70
2012,09,14,04,53,11.80
2012,09,14,04,54,11.80
2012,09,14,04,55,11.90
2012,09,14,04,56,11.90
2012,09,14,04,57,12.00
2012,09,14,04,58,12.00
2012,09,14,04,59,12.00
2012,09,14,05,00,12.00
2012,09,14,05,01,12.00
2012,09,14,05,02,12.00
2012,09,14,05,03,12.00
2012,09,14,05,04,12.00
2012,09,14,05,05,12.10
2012,09,14,05,06,12.10
2012,09,14,05,07,12.10
2012,09,14,05,08,12.10
2012,09,14,05,09,12.10
2012,09,14,05,10,12.00
2012,09,14,05,11,12.00
2012,09,14,05,12,11.90
2012,09,14,05,13,11.80
2012,09,14,05,14,11.70
2012,09,14,05,15,11.70
2012,09,14,05,16,11.70
2012,09,14,05,17,11.70
2012,09,14,05,18,11.80
2012,09,14,05,19,11.80
2012,09,14,05,20,11.90
2012,09,14,05,21,11.90
2012,09,14,05,22,12.00
2012,09,14,05,23,12.10
2012,09,14,05,24,12.20
2012,09,14,05,25,12.40
2012,09,14,05,26,12.50
2012,09,14,05,27,12.70
2012,09,14,05,28,12.80
2012,09,14,05,29,12.90
2012,09,14,05,30,13.00
2012,09,14,05,31,13.00
2012,09,14,05,32,13.10
2012,09,14,05,33,13.10
2012,09,14,05,34,13.10
2012,09,14,05,35,13.20
2012,09,14,05,36,13.30
2012,09,14,05,37,13.30
2012,09,14,05,38,13.40
2012,09,14,05,39,13.40
2012,09,14,05,40,13.50
2012,09,14,05,41,13.60
2012,09,14,05,42,13.60
2012,09,14,05,43,13.60
2012,09,14,05,44,13.60
2012,09,14,05,45,13.70
2012,09,14,05,46,13.70
2012,09,14,05,47,13.70
2012,09,14,05,48,13.70
2012,09,14,05,49,13.70
2012,09,14,05,50,13.70
2012,09,14,05,51,13.70
2012,09,14,05,52,13.60
2012,09,14,05,53,13.60
2012,09,14,05,54,13.60
2012,09,14,05,55,13.60
2012,09,14,05,56,13.50
2012,09,14,05,57,13.50
2012,09,14,05,58,13.40
2012,09,14,05,59,13.40
2012,09,14,06,00,13.40
2012,09,14,06,01,13.40
2012,09,14,06,02,13.40
2012,09,14,06,03,13.40
2012,09,14,06,04,13.40
2012,09,14,06,05,13.40
2012,09,14,06,06,13.40
2012,09,14,06,07,13.40
2012,09,14,06,08,13.30
2012,09,14,06,09,13.30
2012,09,14,06,10,13.30
2012,09,14,06,11,13.30
2012,09,14,06,12,13.20
2012,09,14,06,13,13.20
2012,09,14,06,14,13.20
2012,09,14,06,15,13.10
2012,09,14,06,16,13.10
2012,09,14,06,17,13.10
2012,09,14,06,18,13.00
2012,09,14,06,19,13.00
2012,09,14,06,20,12.90
2012,09,14,06,21,12.90
2012,09,14,06,22,12.90
2012,09,14,06,23,12.90
2012,09,14,06,24,12.90
2012,09,14,06,25,12.90
2012,09,14,06,26,12.90
2012,09,14,06,27,12.90
2012,09,14,06,28,12.90
2012,09,14,06,29,12.90
2012,09,14,06,30,12.90
2012,09,14,06,31,12.90
2012,09,14,06,32,12.90
2012,09,14,06,33,13.00
2012,09,14,06,34,13.00
2012,09,14,06,35,13.00
2012,09,14,06,36,13.00
2012,09,14,06,37,13.00
2012,09,14,06,38,13.00
2012,09,14,06,39,13.00
2012,09,14,06,40,13.00
2012,09,14,06,41,13.00
2012,09,14,06,42,13.10
2012,09,14,06,43,13.10
2012,09,14,06,44,13.20
2012,09,14,06,45,13.20
2012,09,14,06,46,13.20
2012,09,14,06,47,13.10
2012,09,14,06,48,13.10
2012,09,14,06,49,13.10
2012,09,14,06,50,13.10
2012,09,14,06,51,13.10
2012,09,14,06,52,13.10
2012,09,14,06,53,13.10
2012,09,14,06,54,13.10
2012,09,14,06,55,13.00
2012,09,14,06,56,13.00
2012,09,14,06,57,13.10
2012,09,14,06,58,13.10
2012,09,14,06,59,13.10
2012,09,14,07,00,13.20
2012,09,14,07,01,13.20
2012,09,14,07,02,13.20
2012,09,14,07,03,13.20
2012,09,14,07,04,13.20
2012,09,14,07,05,13.20
2012,09,14,07,06,13.30
2012,09,14,07,07,13.30
2012,09,14,07,08,13.30
2012,09,14,07,09,13.30
2012,09,14,07,10,13.30
2012,09,14,07,11,13.30
2012,09,14,07,12,13.30
2012,09,14,07,13,13.30
2012,09,14,07,14,13.40
2012,09,14,07,15,13.40
2012,09,14,07,16,13.40
2012,09,14,07,17,13.40
2012,09,14,07,18,13.40
2012,09,14,07,19,13.40
2012,09,14,07,20,13.40
2012,09,14,07,21,13.40
2012,09,14,07,22,13.40
2012,09,14,07,23,13.40
2012,09,14,07,24,13.40
2012,09,14,07,25,13.40
2012,09,14,07,26,13.40
2012,09,14,07,27,13.30
2012,09,14,07,28,13.40
2012,09,14,07,29,13.40
2012,09,14,07,30,13.40
2012,09,14,07,31,13.40
2012,09,14,07,32,13.40
2012,09,14,07,33,13.40
2012,09,14,07,34,13.40
2012,09,14,07,35,13.40
2012,09,14,07,36,13.40
2012,09,14,07,37,13.50
2012,09,14,07,38,13.60
2012,09,14,07,39,13.60
2012,09,14,07,40,13.60
2012,09,14,07,41,13.70
2012,09,14,07,42,13.70
2012,09,14,07,43,13.70
2012,09,14,07,44,13.80
2012,09,14,07,45,13.90
2012,09,14,07,46,13.90
2012,09,14,07,47,14.00
2012,09,14,07,48,14.10
2012,09,14,07,49,14.10
2012,09,14,07,50,14.20
2012,09,14,07,51,14.30
2012,09,14,07,52,14.40
2012,09,14,07,53,14.50
2012,09,14,07,54,14.50
2012,09,14,07,55,14.60
2012,09,14,07,56,14.70
2012,09,14,07,57,14.70
2012,09,14,07,58,14.80
2012,09,14,07,59,14.80
2012,09,14,08,00,14.90
2012,09,14,08,01,14.90
2012,09,14,08,02,15.00
2012,09,14,08,03,15.00
2012,09,14,08,04,15.00
2012,09,14,08,05,15.00
2012,09,14,08,06,15.00
2012,09,14,08,07,15.00
2012,09,14,08,08,15.00
2012,09,14,08,09,15.00
2012,09,14,08,10,15.00
2012,09,14,08,11,15.00
2012,09,14,08,12,15.00
2012,09,14,08,13,15.00
2012,09,14,08,14,15.00
2012,09,14,08,15,15.00
2012,09,14,08,16,15.10
2012,09,14,08,17,15.10
2012,09,14,08,18,15.20
2012,09,14,08,19,15.20
2012,09,14,08,20,15.30
2012,09,14,08,21,15.30
2012,09,14,08,22,15.30
2012,09,14,08,23,15.40
2012,09,14,08,24,15.40
2012,09,14,08,25,15.40
2012,09,14,08,26,15.50
2012,09,14,08,27,15.50
2012,09,14,08,28,15.60
2012,09,14,08,29,15.60
2012,09,14,08,30,15.70
2012,09,14,08,31,15.70
2012,09,14,08,32,15.80
2012,09,14,08,33,15.80
2012,09,14,08,34,15.90
2012,09,14,08,35,15.90
2012,09,14,08,36,16.00
2012,09,14,08,37,16.00
2012,09,14,08,38,16.00
2012,09,14,08,39,16.00
2012,09,14,08,40,16.00
2012,09,14,08,41,16.00
2012,09,14,08,42,16.00
2012,09,14,08,43,16.10
2012,09,14,08,44,16.10
2012,09,14,08,45,16.10
2012,09,14,08,46,16.10
2012,09,14,08,47,16.00
2012,09,14,08,48,16.00
2012,09,14,08,49,16.00
2012,09,14,08,50,16.00
2012,09,14,08,51,16.00
2012,09,14,08,52,16.00
2012,09,14,08,53,16.00
2012,09,14,08,54,16.00
2012,09,14,08,55,16.10
2012,09,14,08,56,16.10
2012,09,14,08,57,16.10
2012,09,14,08,58,16.10
2012,09,14,08,59,16.20
2012,09,14,09,00,16.20
2012,09,14,09,01,16.20
2012,09,14,09,02,16.20
2012,09,14,09,03,16.20
2012,09,14,09,04,16.20
2012,09,14,09,05,16.20
2012,09,14,09,06,16.20
2012,09,14,09,07,16.20
2012,09,14,09,08,16.20
2012,09,14,09,09,16.20
2012,09,14,09,10,16.20
2012,09,14,09,11,16.20
2012,09,14,09,12,16.20
2012,09,14,09,13,16.20
2012,09,14,09,14,16.20
2012,09,14,09,15,16.20
2012,09,14,09,16,16.20
2012,09,14,09,17,16.20
2012,09,14,09,18,16.20
2012,09,14,09,19,16.20
2012,09,14,09,20,16.20
2012,09,14,09,21,16.10
2012,09,14,09,22,16.10
2012,09,14,09,23,16.10
2012,09,14,09,24,16.20
2012,09,14,09,25,16.20
2012,09,14,09,26,16.20
2012,09,14,09,27,16.20
2012,09,14,09,28,16.30
2012,09,14,09,29,16.30
2012,09,14,09,30,16.30
2012,09,14,09,31,16.40
2012,09,14,09,32,16.50
2012,09,14,09,33,16.60
2012,09,14,09,34,16.60
2012,09,14,09,35,16.70
2012,09,14,09,36,16.80
2012,09,14,09,37,16.80
2012,09,14,09,38,16.90
2012,09,14,09,39,16.90
2012,09,14,09,40,17.00
2012,09,14,09,41,17.00
2012,09,14,09,42,17.00
2012,09,14,09,43,17.00
2012,09,14,09,44,17.00
2012,09,14,09,45,17.10
2012,09,14,09,46,17.10
2012,09,14,09,47,17.10
2012,09,14,09,48,17.20
2012,09,14,09,49,17.20
2012,09,14,09,50,17.30
2012,09,14,09,51,17.40
2012,09,14,09,52,17.40
2012,09,14,09,53,17.40
2012,09,14,09,54,17.50
2012,09,14,09,55,17.60
2012,09,14,09,56,17.60
2012,09,14,09,57,17.60
2012,09,14,09,58,17.60
2012,09,14,09,59,17.60
2012,09,14,10,00,17.60
2012,09,14,10,01,17.60
2012,09,14,10,02,17.60
2012,09,14,10,03,17.60
2012,09,14,10,04,17.60
2012,09,14,10,05,17.60
2012,09,14,10,06,17.60
2012,09,14,10,07,17.70
2012,09,14,10,08,17.70
2012,09,14,10,09,17.70
2012,09,14,10,10,17.80
2012,09,14,10,11,17.80
2012,09,14,10,12,17.80
2012,09,14,10,13,17.80
2012,09,14,10,14,17.80
2012,09,14,10,15,17.80
2012,09,14,10,16,17.90
2012,09,14,10,17,17.90
2012,09,14,10,18,17.90
2012,09,14,10,19,18.00
2012,09,14,10,20,18.00
2012,09,14,10,21,18.10
2012,09,14,10,22,18.10
2012,09,14,10,23,18.10
2012,09,14,10,24,18.10
2012,09,14,10,25,18.20
2012,09,14,10,26,18.20
2012,09,14,10,27,18.20
2012,09,14,10,28,18.30
2012,09,14,10,29,18.30
2012,09,14,10,30,18.30
2012,09,14,10,31,18.40
2012,09,14,10,32,18.40
2012,09,14,10,33,18.40
2012,09,14,10,34,18.40
2012,09,14,10,35,18.40
2012,09,14,10,36,18.40
2012,09,14,10,37,18.50
2012,09,14,10,38,18.50
2012,09,14,10,39,18.50
2012,09,14,10,40,18.60
2012,09,14,10,41,18.60
2012,09,14,10,42,18.60
2012,09,14,10,43,18.60
2012,09,14,10,44,18.70
2012,09,14,10,45,18.70
2012,09,14,10,46,18.60
2012,09,14,10,47,18.70
2012,09,14,10,48,18.70
2012,09,14,10,49,18.70
2012,09,14,10,50,18.70
2012,09,14,10,51,18.80
2012,09,14,10,52,18.80
2012,09,14,10,53,18.80
2012,09,14,10,54,18.80
2012,09,14,10,55,18.90
2012,09,14,10,56,18.90
2012,09,14,10,57,18.90
2012,09,14,10,58,19.00
2012,09,14,10,59,19.10
2012,09,14,11,00,19.10
2012,09,14,11,01,19.20
2012,09,14,11,02,19.20
2012,09,14,11,03,19.30
2012,09,14,11,04,19.40
2012,09,14,11,05,19.40
2012,09,14,11,06,19.40
2012,09,14,11,07,19.40
2012,09,14,11,08,19.40
2012,09,14,11,09,19.40
2012,09,14,11,10,19.40
2012,09,14,11,11,19.40
2012,09,14,11,12,19.40
2012,09,14,11,13,19.40
2012,09,14,11,14,19.30
2012,09,14,11,15,19.30
2012,09,14,11,16,19.20
2012,09,14,11,17,19.10
2012,09,14,11,18,19.10
2012,09,14,11,19,19.10
2012,09,14,11,20,19.00
2012,09,14,11,21,18.90
2012,09,14,11,22,18.80
2012,09,14,11,23,18.80
2012,09,14,11,24,18.70
2012,09,14,11,25,18.70
2012,09,14,11,26,18.70
2012,09,14,11,27,18.60
2012,09,14,11,28,18.60
2012,09,14,11,29,18.50
2012,09,14,11,30,18.50
2012,09,14,11,31,18.50
2012,09,14,11,32,18.50
2012,09,14,11,33,18.40
2012,09,14,11,34,18.40
2012,09,14,11,35,18.30
2012,09,14,11,36,18.30
2012,09,14,11,37,18.30
2012,09,14,11,38,18.20
2012,09,14,11,39,18.20
2012,09,14,11,40,18.10
2012,09,14,11,41,18.10
2012,09,14,11,42,18.10
2012,09,14,11,43,18.10
2012,09,14,11,44,18.10
2012,09,14,11,45,18.20
2012,09,14,11,46,18.30
2012,09,14,11,47,18.30
2012,09,14,11,48,18.40
2012,09,14,11,49,18.50
2012,09,14,11,50,18.70
2012,09,14,11,51,18.80
2012,09,14,11,52,18.90
2012,09,14,11,53,19.00
2012,09,14,11,54,19.20
2012,09,14,11,55,19.30
2012,09,14,11,56,19.30
2012,09,14,11,57,19.30
2012,09,14,11,58,19.40
2012,09,14,11,59,19.40
2012,09,14,12,00,19.40
2012,09,14,12,01,19.40
2012,09,14,12,02,19.40
2012,09,14,12,03,19.30
2012,09,14,12,04,19.40
2012,09,14,12,05,19.30
2012,09,14,12,06,19.30
2012,09,14,12,07,19.40
2012,09,14,12,08,19.40
2012,09,14,12,09,19.40
2012,09,14,12,10,19.50
2012,09,14,12,11,19.50
2012,09,14,12,12,19.60
2012,09,14,12,13,19.70
2012,09,14,12,14,19.70
2012,09,14,12,15,19.70
2012,09,14,12,16,19.80
2012,09,14,12,17,19.80
2012,09,14,12,18,19.80
2012,09,14,12,19,19.90
2012,09,14,12,20,19.90
2012,09,14,12,21,20.00
2012,09,14,12,22,20.00
2012,09,14,12,23,20.00
2012,09,14,12,24,20.00
2012,09,14,12,25,20.00
2012,09,14,12,26,20.00
2012,09,14,12,27,20.00
2012,09,14,12,28,19.90
2012,09,14,12,29,19.90
2012,09,14,12,30,19.80
2012,09,14,12,31,19.80
2012,09,14,12,32,19.80
2012,09,14,12,33,19.80
2012,09,14,12,34,19.70
2012,09,14,12,35,19.50
2012,09,14,12,36,19.40
2012,09,14,12,37,19.40
2012,09,14,12,38,19.30
2012,09,14,12,39,19.40
2012,09,14,12,40,19.40
2012,09,14,12,41,19.40
2012,09,14,12,42,19.50
2012,09,14,12,43,19.60
2012,09,14,12,44,19.70
2012,09,14,12,45,19.80
2012,09,14,12,46,19.90
2012,09,14,12,47,20.00
2012,09,14,12,48,20.20
2012,09,14,12,49,20.40
2012,09,14,12,50,20.60
2012,09,14,12,51,20.60
2012,09,14,12,52,20.60
2012,09,14,12,53,20.60
2012,09,14,12,54,20.60
2012,09,14,12,55,20.70
2012,09,14,12,56,20.70
2012,09,14,12,57,20.70
2012,09,14,12,58,20.70
2012,09,14,12,59,20.70
2012,09,14,13,00,20.70
2012,09,14,13,01,20.60
2012,09,14,13,02,20.60
2012,09,14,13,03,20.70
2012,09,14,13,04,20.70
2012,09,14,13,05,20.70
2012,09,14,13,06,20.70
2012,09,14,13,07,20.70
2012,09,14,13,08,20.70
2012,09,14,13,09,20.70
2012,09,14,13,10,20.70
2012,09,14,13,11,20.70
2012,09,14,13,12,20.70
2012,09,14,13,13,20.70
2012,09,14,13,14,20.70
2012,09,14,13,15,20.70
2012,09,14,13,16,20.70
2012,09,14,13,17,20.60
2012,09,14,13,18,20.50
2012,09,14,13,19,20.50
2012,09,14,13,20,20.40
2012,09,14,13,21,20.40
2012,09,14,13,22,20.40
2012,09,14,13,23,20.40
2012,09,14,13,24,20.30
2012,09,14,13,25,20.20
2012,09,14,13,26,20.20
2012,09,14,13,27,20.10
2012,09,14,13,28,20.10
2012,09,14,13,29,20.10
2012,09,14,13,30,20.20
2012,09,14,13,31,20.20
2012,09,14,13,32,20.30
2012,09,14,13,33,20.50
2012,09,14,13,34,20.60
2012,09,14,13,35,20.70
2012,09,14,13,36,20.80
2012,09,14,13,37,20.80
2012,09,14,13,38,20.80
2012,09,14,13,39,20.80
2012,09,14,13,40,20.80
2012,09,14,13,41,20.90
2012,09,14,13,42,20.90
2012,09,14,13,43,20.90
2012,09,14,13,44,20.90
2012,09,14,13,45,20.90
2012,09,14,13,46,20.90
2012,09,14,13,47,20.90
2012,09,14,13,48,20.90
2012,09,14,13,49,21.00
2012,09,14,13,50,21.00
2012,09,14,13,51,20.90
2012,09,14,13,52,20.90
2012,09,14,13,53,20.80
2012,09,14,13,54,20.80
2012,09,14,13,55,20.80
2012,09,14,13,56,20.80
2012,09,14,13,57,20.80
2012,09,14,13,58,20.90
2012,09,14,13,59,21.00
2012,09,14,14,00,21.00
2012,09,14,14,01,21.10
2012,09,14,14,02,21.10
2012,09,14,14,03,21.20
2012,09,14,14,04,21.20
2012,09,14,14,05,21.30
2012,09,14,14,06,21.30
2012,09,14,14,07,21.30
2012,09,14,14,08,21.30
2012,09,14,14,09,21.30
2012,09,14,14,10,21.30
2012,09,14,14,11,21.40
2012,09,14,14,12,21.40
2012,09,14,14,13,21.30
2012,09,14,14,14,21.30
2012,09,14,14,15,21.40
2012,09,14,14,16,21.40
2012,09,14,14,17,21.30
2012,09,14,14,18,21.30
2012,09,14,14,19,21.10
2012,09,14,14,20,21.00
2012,09,14,14,21,21.00
2012,09,14,14,22,21.10
2012,09,14,14,23,21.10
2012,09,14,14,24,21.20
2012,09,14,14,25,21.20
2012,09,14,14,26,21.20
2012,09,14,14,27,21.20
2012,09,14,14,28,21.30
2012,09,14,14,29,21.20
2012,09,14,14,30,21.30
2012,09,14,14,31,21.30
2012,09,14,14,32,21.30
2012,09,14,14,33,21.30
2012,09,14,14,34,21.40
2012,09,14,14,35,21.50
2012,09,14,14,36,21.60
2012,09,14,14,37,21.50
2012,09,14,14,38,21.40
2012,09,14,14,39,21.30
2012,09,14,14,40,21.30
2012,09,14,14,41,21.30
2012,09,14,14,42,21.30
2012,09,14,14,43,21.30
2012,09,14,14,44,21.30
2012,09,14,14,45,21.50
2012,09,14,14,46,21.60
2012,09,14,14,47,21.70
2012,09,14,14,48,21.80
2012,09,14,14,49,21.80
2012,09,14,14,50,21.90
2012,09,14,14,51,21.90
2012,09,14,14,52,21.90
2012,09,14,14,53,21.90
2012,09,14,14,54,21.80
2012,09,14,14,55,21.80
2012,09,14,14,56,21.80
2012,09,14,14,57,21.80
2012,09,14,14,58,21.80
2012,09,14,14,59,21.80
2012,09,14,15,00,21.80
2012,09,14,15,01,21.90
2012,09,14,15,02,21.90
2012,09,14,15,03,21.90
2012,09,14,15,04,22.00
2012,09,14,15,05,22.00
2012,09,14,15,06,22.00
2012,09,14,15,07,22.00
2012,09,14,15,08,22.00
2012,09,14,15,09,22.00
2012,09,14,15,10,22.10
2012,09,14,15,11,22.10
2012,09,14,15,12,22.20
2012,09,14,15,13,22.20
2012,09,14,15,14,22.10
2012,09,14,15,15,22.10
2012,09,14,15,16,22.10
2012,09,14,15,17,22.10
2012,09,14,15,18,22.10
2012,09,14,15,19,22.10
2012,09,14,15,20,22.00
2012,09,14,15,21,22.00
2012,09,14,15,22,21.90
2012,09,14,15,23,22.00
2012,09,14,15,24,22.10
2012,09,14,15,25,22.10
2012,09,14,15,26,22.10
2012,09,14,15,27,22.10
2012,09,14,15,28,22.10
2012,09,14,15,29,22.10
2012,09,14,15,30,22.10
2012,09,14,15,31,22.10
2012,09,14,15,32,22.20
2012,09,14,15,33,22.30
2012,09,14,15,34,22.40
2012,09,14,15,35,22.50
2012,09,14,15,36,22.50
2012,09,14,15,37,22.60
2012,09,14,15,38,22.70
2012,09,14,15,39,22.80
2012,09,14,15,40,22.70
2012,09,14,15,41,22.60
2012,09,14,15,42,22.40
2012,09,14,15,43,22.30
2012,09,14,15,44,22.20
2012,09,14,15,45,22.10
2012,09,14,15,46,22.00
2012,09,14,15,47,22.00
2012,09,14,15,48,21.90
2012,09,14,15,49,21.80
2012,09,14,15,50,21.70
2012,09,14,15,51,21.70
2012,09,14,15,52,21.60
2012,09,14,15,53,21.60
2012,09,14,15,54,21.60
2012,09,14,15,55,21.50
2012,09,14,15,56,21.50
2012,09,14,15,57,21.40
2012,09,14,15,58,21.40
2012,09,14,15,59,21.30
2012,09,14,16,00,21.20
2012,09,14,16,01,21.20
2012,09,14,16,02,21.10
2012,09,14,16,03,21.00
2012,09,14,16,04,20.90
2012,09,14,16,05,20.90
2012,09,14,16,06,20.80
2012,09,14,16,07,20.80
2012,09,14,16,08,20.70
2012,09,14,16,09,20.70
2012,09,14,16,10,20.60
2012,09,14,16,11,20.60
2012,09,14,16,12,20.70
2012,09,14,16,13,20.70
2012,09,14,16,14,20.80
2012,09,14,16,15,20.90
2012,09,14,16,16,21.00
2012,09,14,16,17,21.10
2012,09,14,16,18,21.20
2012,09,14,16,19,21.30
2012,09,14,16,20,21.40
2012,09,14,16,21,21.50
2012,09,14,16,22,21.60
2012,09,14,16,23,21.70
2012,09,14,16,24,21.80
2012,09,14,16,25,21.80
2012,09,14,16,26,21.90
2012,09,14,16,27,22.00
2012,09,14,16,28,22.00
2012,09,14,16,29,22.10
2012,09,14,16,30,22.20
2012,09,14,16,31,22.30
2012,09,14,16,32,22.40
2012,09,14,16,33,22.40
2012,09,14,16,34,22.50
2012,09,14,16,35,22.50
2012,09,14,16,36,22.60
2012,09,14,16,37,22.70
2012,09,14,16,38,22.80
2012,09,14,16,39,22.80
2012,09,14,16,40,22.80
2012,09,14,16,41,22.80
2012,09,14,16,42,22.80
2012,09,14,16,43,22.80
2012,09,14,16,44,22.70
2012,09,14,16,45,22.60
2012,09,14,16,46,22.50
2012,09,14,16,47,22.40
2012,09,14,16,48,22.30
2012,09,14,16,49,22.30
2012,09,14,16,50,22.30
2012,09,14,16,51,22.30
2012,09,14,16,52,22.20
2012,09,14,16,53,22.20
2012,09,14,16,54,22.10
2012,09,14,16,55,22.00
2012,09,14,16,56,22.10
2012,09,14,16,57,22.00
2012,09,14,16,58,22.00
2012,09,14,16,59,21.90
2012,09,14,17,00,21.90
2012,09,14,17,01,22.00
2012,09,14,17,02,22.10
2012,09,14,17,03,22.20
2012,09,14,17,04,22.30
2012,09,14,17,05,22.30
2012,09,14,17,06,22.30
2012,09,14,17,07,22.40
2012,09,14,17,08,22.40
2012,09,14,17,09,22.50
2012,09,14,17,10,22.60
2012,09,14,17,11,22.60
2012,09,14,17,12,22.70
2012,09,14,17,13,22.70
2012,09,14,17,14,22.70
2012,09,14,17,15,22.80
2012,09,14,17,16,22.80
2012,09,14,17,17,22.80
2012,09,14,17,18,22.80
2012,09,14,17,19,22.80
2012,09,14,17,20,22.80
2012,09,14,17,21,22.70
2012,09,14,17,22,22.70
2012,09,14,17,23,22.50
2012,09,14,17,24,22.40
2012,09,14,17,25,22.40
2012,09,14,17,26,22.30
2012,09,14,17,27,22.30